owner,sensor,date,latitude,longitude,air_temperature,qcFlag 
COMPS,ioos:station:USF.COMPS:FHP:1,2014-04-01T00:00:00Z,28.1530,-82.8010,19.22,1111122 
COMPS,ioos:station:USF.COMPS:FHP:1,2014-04-01T00:06:00Z,28.1530,-82.8010,19.15,1111122 
COMPS,ioos:station:USF.COMPS:FHP:1,2014-04-01T00:12:00Z,28.1530,-82.8010,18.97,1111122 
COMPS,ioos:station:USF.COMPS:FHP:1,2014-04-01T00:18:00Z,28.1530,-82.8010,18.97,1111122 
COMPS,ioos:station:USF.COMPS:FHP:1,2014-04-01T00:24:00Z,28.1530,-82.8010,18.94,1111122 
COMPS,ioos:station:USF.COMPS:FHP:1,2014-04-01T00:30:00Z,28.1530,-82.8010,18.84,1111122 
COMPS,ioos:station:USF.COMPS:FHP:1,2014-04-01T00:36:00Z,28.1530,-82.8010,18.83,1111122 
COMPS,ioos:station:USF.COMPS:FHP:1,2014-04-01T00:42:00Z,28.1530,-82.8010,18.84,1111122 
COMPS,ioos:station:USF.COMPS:FHP:1,2014-04-01T00:48:00Z,28.1530,-82.8010,18.85,1111122 
COMPS,ioos:station:USF.COMPS:FHP:1,2014-04-01T00:54:00Z,28.1530,-82.8010,18.84,1111122 
COMPS,ioos:station:USF.COMPS:FHP:1,2014-04-01T01:00:00Z,28.1530,-82.8010,18.77,1111122 
COMPS,ioos:station:USF.COMPS:FHP:1,2014-04-01T01:06:00Z,28.1530,-82.8010,18.71,1111122 
COMPS,ioos:station:USF.COMPS:FHP:1,2014-04-01T01:12:00Z,28.1530,-82.8010,18.67,1111122 
COMPS,ioos:station:USF.COMPS:FHP:1,2014-04-01T01:18:00Z,28.1530,-82.8010,18.59,1111122 
COMPS,ioos:station:USF.COMPS:FHP:1,2014-04-01T01:24:00Z,28.1530,-82.8010,18.58,1111122 
COMPS,ioos:station:USF.COMPS:FHP:1,2014-04-01T01:30:00Z,28.1530,-82.8010,18.57,1111122 
COMPS,ioos:station:USF.COMPS:FHP:1,2014-04-01T01:36:00Z,28.1530,-82.8010,18.56,1111122 
COMPS,ioos:station:USF.COMPS:FHP:1,2014-04-01T01:42:00Z,28.1530,-82.8010,18.56,1111122 
COMPS,ioos:station:USF.COMPS:FHP:1,2014-04-01T01:48:00Z,28.1530,-82.8010,18.57,1111122 
COMPS,ioos:station:USF.COMPS:FHP:1,2014-04-01T01:54:00Z,28.1530,-82.8010,18.53,1111122 
COMPS,ioos:station:USF.COMPS:FHP:1,2014-04-01T02:00:00Z,28.1530,-82.8010,18.35,1111122 
COMPS,ioos:station:USF.COMPS:FHP:1,2014-04-01T02:06:00Z,28.1530,-82.8010,18.09,1111122 
COMPS,ioos:station:USF.COMPS:FHP:1,2014-04-01T02:12:00Z,28.1530,-82.8010,17.82,1111122 
COMPS,ioos:station:USF.COMPS:FHP:1,2014-04-01T02:18:00Z,28.1530,-82.8010,17.4,1111122 
COMPS,ioos:station:USF.COMPS:FHP:1,2014-04-01T02:24:00Z,28.1530,-82.8010,17.0,1111122 
COMPS,ioos:station:USF.COMPS:FHP:1,2014-04-01T02:30:00Z,28.1530,-82.8010,17.04,1111122 
COMPS,ioos:station:USF.COMPS:FHP:1,2014-04-01T02:36:00Z,28.1530,-82.8010,16.86,1111122 
COMPS,ioos:station:USF.COMPS:FHP:1,2014-04-01T02:42:00Z,28.1530,-82.8010,17.23,1111122 
COMPS,ioos:station:USF.COMPS:FHP:1,2014-04-01T02:48:00Z,28.1530,-82.8010,17.26,1111122 
COMPS,ioos:station:USF.COMPS:FHP:1,2014-04-01T02:54:00Z,28.1530,-82.8010,17.26,1111122 
COMPS,ioos:station:USF.COMPS:FHP:1,2014-04-01T03:00:00Z,28.1530,-82.8010,17.27,1111122 
COMPS,ioos:station:USF.COMPS:FHP:1,2014-04-01T03:06:00Z,28.1530,-82.8010,17.36,1111122 
COMPS,ioos:station:USF.COMPS:FHP:1,2014-04-01T03:12:00Z,28.1530,-82.8010,17.33,1111122 
COMPS,ioos:station:USF.COMPS:FHP:1,2014-04-01T03:18:00Z,28.1530,-82.8010,17.55,1111122 
COMPS,ioos:station:USF.COMPS:FHP:1,2014-04-01T03:24:00Z,28.1530,-82.8010,18.04,1111122 
COMPS,ioos:station:USF.COMPS:FHP:1,2014-04-01T03:30:00Z,28.1530,-82.8010,17.99,1111122 
COMPS,ioos:station:USF.COMPS:FHP:1,2014-04-01T03:36:00Z,28.1530,-82.8010,17.36,1111122 
COMPS,ioos:station:USF.COMPS:FHP:1,2014-04-01T03:42:00Z,28.1530,-82.8010,16.95,1111122 
COMPS,ioos:station:USF.COMPS:FHP:1,2014-04-01T03:48:00Z,28.1530,-82.8010,16.86,1111122 
COMPS,ioos:station:USF.COMPS:FHP:1,2014-04-01T03:54:00Z,28.1530,-82.8010,16.81,1111122 
COMPS,ioos:station:USF.COMPS:FHP:1,2014-04-01T04:00:00Z,28.1530,-82.8010,16.73,1111122 
COMPS,ioos:station:USF.COMPS:FHP:1,2014-04-01T04:06:00Z,28.1530,-82.8010,16.85,1111122 
COMPS,ioos:station:USF.COMPS:FHP:1,2014-04-01T04:12:00Z,28.1530,-82.8010,17.49,1111122 
COMPS,ioos:station:USF.COMPS:FHP:1,2014-04-01T04:18:00Z,28.1530,-82.8010,17.77,1111122 
COMPS,ioos:station:USF.COMPS:FHP:1,2014-04-01T04:24:00Z,28.1530,-82.8010,17.8,1111122 
COMPS,ioos:station:USF.COMPS:FHP:1,2014-04-01T04:30:00Z,28.1530,-82.8010,17.19,1111122 
COMPS,ioos:station:USF.COMPS:FHP:1,2014-04-01T04:36:00Z,28.1530,-82.8010,16.89,1111122 
COMPS,ioos:station:USF.COMPS:FHP:1,2014-04-01T04:42:00Z,28.1530,-82.8010,16.94,1111122 
COMPS,ioos:station:USF.COMPS:FHP:1,2014-04-01T04:48:00Z,28.1530,-82.8010,16.79,1111122 
COMPS,ioos:station:USF.COMPS:FHP:1,2014-04-01T04:54:00Z,28.1530,-82.8010,16.59,1111122 
COMPS,ioos:station:USF.COMPS:FHP:1,2014-04-01T05:00:00Z,28.1530,-82.8010,16.46,1111122 
COMPS,ioos:station:USF.COMPS:FHP:1,2014-04-01T05:06:00Z,28.1530,-82.8010,16.46,1111122 
COMPS,ioos:station:USF.COMPS:FHP:1,2014-04-01T05:12:00Z,28.1530,-82.8010,16.58,1111122 
COMPS,ioos:station:USF.COMPS:FHP:1,2014-04-01T05:18:00Z,28.1530,-82.8010,16.66,1111122 
COMPS,ioos:station:USF.COMPS:FHP:1,2014-04-01T05:24:00Z,28.1530,-82.8010,16.64,1111122 
COMPS,ioos:station:USF.COMPS:FHP:1,2014-04-01T05:30:00Z,28.1530,-82.8010,16.43,1111122 
COMPS,ioos:station:USF.COMPS:FHP:1,2014-04-01T05:36:00Z,28.1530,-82.8010,16.33,1111122 
COMPS,ioos:station:USF.COMPS:FHP:1,2014-04-01T05:42:00Z,28.1530,-82.8010,16.15,1111122 
COMPS,ioos:station:USF.COMPS:FHP:1,2014-04-01T05:48:00Z,28.1530,-82.8010,15.82,1111122 
COMPS,ioos:station:USF.COMPS:FHP:1,2014-04-01T05:54:00Z,28.1530,-82.8010,15.52,1111122 
COMPS,ioos:station:USF.COMPS:FHP:1,2014-04-01T06:00:00Z,28.1530,-82.8010,15.39,1111122 
COMPS,ioos:station:USF.COMPS:FHP:1,2014-04-01T06:06:00Z,28.1530,-82.8010,15.37,1111122 
COMPS,ioos:station:USF.COMPS:FHP:1,2014-04-01T06:12:00Z,28.1530,-82.8010,15.42,1111122 
COMPS,ioos:station:USF.COMPS:FHP:1,2014-04-01T06:18:00Z,28.1530,-82.8010,15.44,1111122 
COMPS,ioos:station:USF.COMPS:FHP:1,2014-04-01T06:24:00Z,28.1530,-82.8010,15.31,1111122 
COMPS,ioos:station:USF.COMPS:FHP:1,2014-04-01T06:30:00Z,28.1530,-82.8010,15.12,1111122 
COMPS,ioos:station:USF.COMPS:FHP:1,2014-04-01T06:36:00Z,28.1530,-82.8010,15.02,1111122 
COMPS,ioos:station:USF.COMPS:FHP:1,2014-04-01T06:42:00Z,28.1530,-82.8010,14.85,1111122 
COMPS,ioos:station:USF.COMPS:FHP:1,2014-04-01T06:48:00Z,28.1530,-82.8010,14.87,1111122 
COMPS,ioos:station:USF.COMPS:FHP:1,2014-04-01T06:54:00Z,28.1530,-82.8010,15.01,1111122 
COMPS,ioos:station:USF.COMPS:FHP:1,2014-04-01T07:00:00Z,28.1530,-82.8010,15.02,1111122 
COMPS,ioos:station:USF.COMPS:FHP:1,2014-04-01T07:06:00Z,28.1530,-82.8010,14.88,1111122 
COMPS,ioos:station:USF.COMPS:FHP:1,2014-04-01T07:12:00Z,28.1530,-82.8010,14.87,1111122 
COMPS,ioos:station:USF.COMPS:FHP:1,2014-04-01T07:18:00Z,28.1530,-82.8010,14.92,1111122 
COMPS,ioos:station:USF.COMPS:FHP:1,2014-04-01T07:24:00Z,28.1530,-82.8010,14.8,1111122 
COMPS,ioos:station:USF.COMPS:FHP:1,2014-04-01T07:30:00Z,28.1530,-82.8010,14.79,1111122 
COMPS,ioos:station:USF.COMPS:FHP:1,2014-04-01T07:36:00Z,28.1530,-82.8010,14.82,1111122 
COMPS,ioos:station:USF.COMPS:FHP:1,2014-04-01T07:42:00Z,28.1530,-82.8010,14.78,1111122 
COMPS,ioos:station:USF.COMPS:FHP:1,2014-04-01T07:48:00Z,28.1530,-82.8010,14.66,1111122 
COMPS,ioos:station:USF.COMPS:FHP:1,2014-04-01T07:54:00Z,28.1530,-82.8010,14.51,1111122 
COMPS,ioos:station:USF.COMPS:FHP:1,2014-04-01T08:00:00Z,28.1530,-82.8010,14.44,1111122 
COMPS,ioos:station:USF.COMPS:FHP:1,2014-04-01T08:06:00Z,28.1530,-82.8010,14.44,1111122 
COMPS,ioos:station:USF.COMPS:FHP:1,2014-04-01T08:12:00Z,28.1530,-82.8010,14.08,1111122 
COMPS,ioos:station:USF.COMPS:FHP:1,2014-04-01T08:18:00Z,28.1530,-82.8010,13.88,1111122 
COMPS,ioos:station:USF.COMPS:FHP:1,2014-04-01T08:24:00Z,28.1530,-82.8010,13.76,1111122 
COMPS,ioos:station:USF.COMPS:FHP:1,2014-04-01T08:30:00Z,28.1530,-82.8010,13.76,1111122 
COMPS,ioos:station:USF.COMPS:FHP:1,2014-04-01T08:36:00Z,28.1530,-82.8010,13.78,1111122 
COMPS,ioos:station:USF.COMPS:FHP:1,2014-04-01T08:42:00Z,28.1530,-82.8010,13.8,1111122 
COMPS,ioos:station:USF.COMPS:FHP:1,2014-04-01T08:48:00Z,28.1530,-82.8010,13.79,1111122 
COMPS,ioos:station:USF.COMPS:FHP:1,2014-04-01T08:54:00Z,28.1530,-82.8010,13.82,1111122 
COMPS,ioos:station:USF.COMPS:FHP:1,2014-04-01T09:00:00Z,28.1530,-82.8010,13.9,1111122 
COMPS,ioos:station:USF.COMPS:FHP:1,2014-04-01T09:06:00Z,28.1530,-82.8010,14.1,1111122 
COMPS,ioos:station:USF.COMPS:FHP:1,2014-04-01T09:12:00Z,28.1530,-82.8010,14.09,1111122 
COMPS,ioos:station:USF.COMPS:FHP:1,2014-04-01T09:18:00Z,28.1530,-82.8010,14.31,1111122 
COMPS,ioos:station:USF.COMPS:FHP:1,2014-04-01T09:24:00Z,28.1530,-82.8010,14.45,1111122 
COMPS,ioos:station:USF.COMPS:FHP:1,2014-04-01T09:30:00Z,28.1530,-82.8010,14.3,1111122 
COMPS,ioos:station:USF.COMPS:FHP:1,2014-04-01T09:36:00Z,28.1530,-82.8010,14.12,1111122 
COMPS,ioos:station:USF.COMPS:FHP:1,2014-04-01T09:42:00Z,28.1530,-82.8010,14.3,1111122 
COMPS,ioos:station:USF.COMPS:FHP:1,2014-04-01T09:48:00Z,28.1530,-82.8010,14.32,1111122 
COMPS,ioos:station:USF.COMPS:FHP:1,2014-04-01T09:54:00Z,28.1530,-82.8010,14.22,1111122 
COMPS,ioos:station:USF.COMPS:FHP:1,2014-04-01T10:00:00Z,28.1530,-82.8010,14.29,1111122 
COMPS,ioos:station:USF.COMPS:FHP:1,2014-04-01T10:06:00Z,28.1530,-82.8010,14.29,1111122 
COMPS,ioos:station:USF.COMPS:FHP:1,2014-04-01T10:12:00Z,28.1530,-82.8010,14.2,1111122 
COMPS,ioos:station:USF.COMPS:FHP:1,2014-04-01T10:18:00Z,28.1530,-82.8010,14.04,1111122 
COMPS,ioos:station:USF.COMPS:FHP:1,2014-04-01T10:24:00Z,28.1530,-82.8010,13.85,1111122 
COMPS,ioos:station:USF.COMPS:FHP:1,2014-04-01T10:30:00Z,28.1530,-82.8010,13.76,1111122 
COMPS,ioos:station:USF.COMPS:FHP:1,2014-04-01T10:36:00Z,28.1530,-82.8010,13.77,1111122 
COMPS,ioos:station:USF.COMPS:FHP:1,2014-04-01T10:42:00Z,28.1530,-82.8010,13.73,1111122 
COMPS,ioos:station:USF.COMPS:FHP:1,2014-04-01T10:48:00Z,28.1530,-82.8010,13.63,1111122 
COMPS,ioos:station:USF.COMPS:FHP:1,2014-04-01T10:54:00Z,28.1530,-82.8010,13.65,1111122 
COMPS,ioos:station:USF.COMPS:FHP:1,2014-04-01T11:00:00Z,28.1530,-82.8010,13.71,1111122 
COMPS,ioos:station:USF.COMPS:FHP:1,2014-04-01T11:06:00Z,28.1530,-82.8010,13.63,1111122 
COMPS,ioos:station:USF.COMPS:FHP:1,2014-04-01T11:12:00Z,28.1530,-82.8010,13.61,1111122 
COMPS,ioos:station:USF.COMPS:FHP:1,2014-04-01T11:18:00Z,28.1530,-82.8010,13.55,1111122 
COMPS,ioos:station:USF.COMPS:FHP:1,2014-04-01T11:24:00Z,28.1530,-82.8010,13.6,1111122 
COMPS,ioos:station:USF.COMPS:FHP:1,2014-04-01T11:30:00Z,28.1530,-82.8010,13.52,1111122 
COMPS,ioos:station:USF.COMPS:FHP:1,2014-04-01T11:36:00Z,28.1530,-82.8010,13.39,1111122 
COMPS,ioos:station:USF.COMPS:FHP:1,2014-04-01T11:42:00Z,28.1530,-82.8010,13.3,1111122 
COMPS,ioos:station:USF.COMPS:FHP:1,2014-04-01T11:48:00Z,28.1530,-82.8010,13.21,1111122 
COMPS,ioos:station:USF.COMPS:FHP:1,2014-04-01T11:54:00Z,28.1530,-82.8010,13.2,1111122 
COMPS,ioos:station:USF.COMPS:FHP:1,2014-04-01T12:00:00Z,28.1530,-82.8010,13.33,1111122 
COMPS,ioos:station:USF.COMPS:FHP:1,2014-04-01T12:06:00Z,28.1530,-82.8010,13.4,1111122 
COMPS,ioos:station:USF.COMPS:FHP:1,2014-04-01T12:12:00Z,28.1530,-82.8010,13.6,1111122 
COMPS,ioos:station:USF.COMPS:FHP:1,2014-04-01T12:18:00Z,28.1530,-82.8010,13.91,1111122 
COMPS,ioos:station:USF.COMPS:FHP:1,2014-04-01T12:24:00Z,28.1530,-82.8010,14.17,1111122 
COMPS,ioos:station:USF.COMPS:FHP:1,2014-04-01T12:30:00Z,28.1530,-82.8010,14.36,1111122 
COMPS,ioos:station:USF.COMPS:FHP:1,2014-04-01T12:36:00Z,28.1530,-82.8010,14.63,1111122 
COMPS,ioos:station:USF.COMPS:FHP:1,2014-04-01T12:42:00Z,28.1530,-82.8010,15.13,1111122 
COMPS,ioos:station:USF.COMPS:FHP:1,2014-04-01T12:48:00Z,28.1530,-82.8010,15.87,1111122 
COMPS,ioos:station:USF.COMPS:FHP:1,2014-04-01T12:54:00Z,28.1530,-82.8010,16.19,1111122 
COMPS,ioos:station:USF.COMPS:FHP:1,2014-04-01T13:00:00Z,28.1530,-82.8010,16.43,1111122 
COMPS,ioos:station:USF.COMPS:FHP:1,2014-04-01T13:06:00Z,28.1530,-82.8010,16.88,1111122 
COMPS,ioos:station:USF.COMPS:FHP:1,2014-04-01T13:12:00Z,28.1530,-82.8010,17.31,1111122 
COMPS,ioos:station:USF.COMPS:FHP:1,2014-04-01T13:18:00Z,28.1530,-82.8010,17.72,1111122 
COMPS,ioos:station:USF.COMPS:FHP:1,2014-04-01T13:24:00Z,28.1530,-82.8010,18.0,1111122 
COMPS,ioos:station:USF.COMPS:FHP:1,2014-04-01T13:30:00Z,28.1530,-82.8010,18.21,1111122 
COMPS,ioos:station:USF.COMPS:FHP:1,2014-04-01T13:36:00Z,28.1530,-82.8010,18.3,1111122 
COMPS,ioos:station:USF.COMPS:FHP:1,2014-04-01T13:42:00Z,28.1530,-82.8010,18.32,1111122 
COMPS,ioos:station:USF.COMPS:FHP:1,2014-04-01T13:48:00Z,28.1530,-82.8010,18.58,1111122 
COMPS,ioos:station:USF.COMPS:FHP:1,2014-04-01T13:54:00Z,28.1530,-82.8010,18.81,1111122 
COMPS,ioos:station:USF.COMPS:FHP:1,2014-04-01T14:00:00Z,28.1530,-82.8010,18.89,1111122 
COMPS,ioos:station:USF.COMPS:FHP:1,2014-04-01T14:06:00Z,28.1530,-82.8010,19.06,1111122 
COMPS,ioos:station:USF.COMPS:FHP:1,2014-04-01T14:12:00Z,28.1530,-82.8010,19.4,1111122 
COMPS,ioos:station:USF.COMPS:FHP:1,2014-04-01T14:18:00Z,28.1530,-82.8010,19.67,1111122 
COMPS,ioos:station:USF.COMPS:FHP:1,2014-04-01T14:24:00Z,28.1530,-82.8010,19.75,1111122 
COMPS,ioos:station:USF.COMPS:FHP:1,2014-04-01T14:30:00Z,28.1530,-82.8010,19.82,1111122 
COMPS,ioos:station:USF.COMPS:FHP:1,2014-04-01T14:36:00Z,28.1530,-82.8010,20.0,1111122 
COMPS,ioos:station:USF.COMPS:FHP:1,2014-04-01T14:42:00Z,28.1530,-82.8010,20.15,1111122 
COMPS,ioos:station:USF.COMPS:FHP:1,2014-04-01T14:48:00Z,28.1530,-82.8010,20.35,1111122 
COMPS,ioos:station:USF.COMPS:FHP:1,2014-04-01T14:54:00Z,28.1530,-82.8010,20.49,1111122 
COMPS,ioos:station:USF.COMPS:FHP:1,2014-04-01T15:00:00Z,28.1530,-82.8010,20.71,1111122 
COMPS,ioos:station:USF.COMPS:FHP:1,2014-04-01T15:06:00Z,28.1530,-82.8010,20.94,1111122 
COMPS,ioos:station:USF.COMPS:FHP:1,2014-04-01T15:12:00Z,28.1530,-82.8010,21.14,1111122 
COMPS,ioos:station:USF.COMPS:FHP:1,2014-04-01T15:18:00Z,28.1530,-82.8010,21.26,1111122 
COMPS,ioos:station:USF.COMPS:FHP:1,2014-04-01T15:24:00Z,28.1530,-82.8010,21.45,1111122 
COMPS,ioos:station:USF.COMPS:FHP:1,2014-04-01T15:30:00Z,28.1530,-82.8010,21.71,1111122 
COMPS,ioos:station:USF.COMPS:FHP:1,2014-04-01T15:36:00Z,28.1530,-82.8010,21.64,1111122 
COMPS,ioos:station:USF.COMPS:FHP:1,2014-04-01T15:42:00Z,28.1530,-82.8010,21.68,1111122 
COMPS,ioos:station:USF.COMPS:FHP:1,2014-04-01T15:48:00Z,28.1530,-82.8010,21.58,1111122 
COMPS,ioos:station:USF.COMPS:FHP:1,2014-04-01T15:54:00Z,28.1530,-82.8010,21.45,1111122 
COMPS,ioos:station:USF.COMPS:FHP:1,2014-04-01T16:00:00Z,28.1530,-82.8010,21.67,1111122 
COMPS,ioos:station:USF.COMPS:FHP:1,2014-04-01T16:06:00Z,28.1530,-82.8010,21.58,1111122 
COMPS,ioos:station:USF.COMPS:FHP:1,2014-04-01T16:12:00Z,28.1530,-82.8010,21.55,1111122 
COMPS,ioos:station:USF.COMPS:FHP:1,2014-04-01T16:18:00Z,28.1530,-82.8010,21.84,1111122 
COMPS,ioos:station:USF.COMPS:FHP:1,2014-04-01T16:24:00Z,28.1530,-82.8010,21.93,1111122 
COMPS,ioos:station:USF.COMPS:FHP:1,2014-04-01T16:30:00Z,28.1530,-82.8010,21.99,1111122 
COMPS,ioos:station:USF.COMPS:FHP:1,2014-04-01T16:36:00Z,28.1530,-82.8010,21.91,1111122 
COMPS,ioos:station:USF.COMPS:FHP:1,2014-04-01T16:42:00Z,28.1530,-82.8010,21.41,1111122 
COMPS,ioos:station:USF.COMPS:FHP:1,2014-04-01T16:48:00Z,28.1530,-82.8010,20.11,1111122 
COMPS,ioos:station:USF.COMPS:FHP:1,2014-04-01T16:54:00Z,28.1530,-82.8010,20.3,1111122 
COMPS,ioos:station:USF.COMPS:FHP:1,2014-04-01T17:00:00Z,28.1530,-82.8010,20.14,1111122 
COMPS,ioos:station:USF.COMPS:FHP:1,2014-04-01T17:06:00Z,28.1530,-82.8010,20.1,1111122 
COMPS,ioos:station:USF.COMPS:FHP:1,2014-04-01T17:12:00Z,28.1530,-82.8010,20.14,1111122 
COMPS,ioos:station:USF.COMPS:FHP:1,2014-04-01T17:18:00Z,28.1530,-82.8010,20.25,1111122 
COMPS,ioos:station:USF.COMPS:FHP:1,2014-04-01T17:24:00Z,28.1530,-82.8010,20.25,1111122 
COMPS,ioos:station:USF.COMPS:FHP:1,2014-04-01T17:30:00Z,28.1530,-82.8010,20.37,1111122 
COMPS,ioos:station:USF.COMPS:FHP:1,2014-04-01T17:36:00Z,28.1530,-82.8010,20.36,1111122 
COMPS,ioos:station:USF.COMPS:FHP:1,2014-04-01T17:42:00Z,28.1530,-82.8010,20.29,1111122 
COMPS,ioos:station:USF.COMPS:FHP:1,2014-04-01T17:48:00Z,28.1530,-82.8010,20.39,1111122 
COMPS,ioos:station:USF.COMPS:FHP:1,2014-04-01T17:54:00Z,28.1530,-82.8010,20.48,1111122 
COMPS,ioos:station:USF.COMPS:FHP:1,2014-04-01T18:00:00Z,28.1530,-82.8010,20.42,1111122 
COMPS,ioos:station:USF.COMPS:FHP:1,2014-04-01T18:06:00Z,28.1530,-82.8010,20.34,1111122 
COMPS,ioos:station:USF.COMPS:FHP:1,2014-04-01T18:12:00Z,28.1530,-82.8010,20.24,1111122 
COMPS,ioos:station:USF.COMPS:FHP:1,2014-04-01T18:18:00Z,28.1530,-82.8010,20.68,1111122 
COMPS,ioos:station:USF.COMPS:FHP:1,2014-04-01T18:24:00Z,28.1530,-82.8010,20.52,1111122 
COMPS,ioos:station:USF.COMPS:FHP:1,2014-04-01T18:30:00Z,28.1530,-82.8010,20.52,1111122 
COMPS,ioos:station:USF.COMPS:FHP:1,2014-04-01T18:36:00Z,28.1530,-82.8010,20.48,1111122 
COMPS,ioos:station:USF.COMPS:FHP:1,2014-04-01T18:42:00Z,28.1530,-82.8010,20.54,1111122 
COMPS,ioos:station:USF.COMPS:FHP:1,2014-04-01T18:48:00Z,28.1530,-82.8010,20.51,1111122 
COMPS,ioos:station:USF.COMPS:FHP:1,2014-04-01T18:54:00Z,28.1530,-82.8010,20.69,1111122 
COMPS,ioos:station:USF.COMPS:FHP:1,2014-04-01T19:00:00Z,28.1530,-82.8010,20.93,1111122 
COMPS,ioos:station:USF.COMPS:FHP:1,2014-04-01T19:06:00Z,28.1530,-82.8010,20.98,1111122 
COMPS,ioos:station:USF.COMPS:FHP:1,2014-04-01T19:12:00Z,28.1530,-82.8010,20.99,1111122 
COMPS,ioos:station:USF.COMPS:FHP:1,2014-04-01T19:18:00Z,28.1530,-82.8010,21.04,1111122 
COMPS,ioos:station:USF.COMPS:FHP:1,2014-04-01T19:24:00Z,28.1530,-82.8010,21.1,1111122 
COMPS,ioos:station:USF.COMPS:FHP:1,2014-04-01T19:30:00Z,28.1530,-82.8010,20.97,1111122 
COMPS,ioos:station:USF.COMPS:FHP:1,2014-04-01T19:36:00Z,28.1530,-82.8010,20.93,1111122 
COMPS,ioos:station:USF.COMPS:FHP:1,2014-04-01T19:42:00Z,28.1530,-82.8010,20.97,1111122 
COMPS,ioos:station:USF.COMPS:FHP:1,2014-04-01T19:48:00Z,28.1530,-82.8010,21.01,1111122 
COMPS,ioos:station:USF.COMPS:FHP:1,2014-04-01T19:54:00Z,28.1530,-82.8010,21.17,1111122 
COMPS,ioos:station:USF.COMPS:FHP:1,2014-04-01T20:00:00Z,28.1530,-82.8010,21.51,1111122 
COMPS,ioos:station:USF.COMPS:FHP:1,2014-04-01T20:06:00Z,28.1530,-82.8010,22.52,1111122 
COMPS,ioos:station:USF.COMPS:FHP:1,2014-04-01T20:12:00Z,28.1530,-82.8010,22.63,1111122 
COMPS,ioos:station:USF.COMPS:FHP:1,2014-04-01T20:18:00Z,28.1530,-82.8010,22.54,1111122 
COMPS,ioos:station:USF.COMPS:FHP:1,2014-04-01T20:24:00Z,28.1530,-82.8010,22.37,1111122 
COMPS,ioos:station:USF.COMPS:FHP:1,2014-04-01T20:30:00Z,28.1530,-82.8010,22.22,1111122 
COMPS,ioos:station:USF.COMPS:FHP:1,2014-04-01T20:36:00Z,28.1530,-82.8010,22.24,1111122 
COMPS,ioos:station:USF.COMPS:FHP:1,2014-04-01T20:42:00Z,28.1530,-82.8010,22.42,1111122 
COMPS,ioos:station:USF.COMPS:FHP:1,2014-04-01T20:48:00Z,28.1530,-82.8010,22.51,1111122 
COMPS,ioos:station:USF.COMPS:FHP:1,2014-04-01T20:54:00Z,28.1530,-82.8010,22.43,1111122 
COMPS,ioos:station:USF.COMPS:FHP:1,2014-04-01T21:00:00Z,28.1530,-82.8010,22.49,1111122 
COMPS,ioos:station:USF.COMPS:FHP:1,2014-04-01T21:06:00Z,28.1530,-82.8010,22.31,1111122 
COMPS,ioos:station:USF.COMPS:FHP:1,2014-04-01T21:12:00Z,28.1530,-82.8010,22.32,1111122 
COMPS,ioos:station:USF.COMPS:FHP:1,2014-04-01T21:18:00Z,28.1530,-82.8010,22.45,1111122 
COMPS,ioos:station:USF.COMPS:FHP:1,2014-04-01T21:24:00Z,28.1530,-82.8010,22.6,1111122 
COMPS,ioos:station:USF.COMPS:FHP:1,2014-04-01T21:30:00Z,28.1530,-82.8010,22.69,1111122 
COMPS,ioos:station:USF.COMPS:FHP:1,2014-04-01T21:36:00Z,28.1530,-82.8010,22.6,1111122 
COMPS,ioos:station:USF.COMPS:FHP:1,2014-04-01T21:42:00Z,28.1530,-82.8010,22.6,1111122 
COMPS,ioos:station:USF.COMPS:FHP:1,2014-04-01T21:48:00Z,28.1530,-82.8010,22.71,1111122 
COMPS,ioos:station:USF.COMPS:FHP:1,2014-04-01T21:54:00Z,28.1530,-82.8010,22.74,1111122 
COMPS,ioos:station:USF.COMPS:FHP:1,2014-04-01T22:00:00Z,28.1530,-82.8010,22.3,1111122 
COMPS,ioos:station:USF.COMPS:FHP:1,2014-04-01T22:06:00Z,28.1530,-82.8010,22.32,1111122 
COMPS,ioos:station:USF.COMPS:FHP:1,2014-04-01T22:12:00Z,28.1530,-82.8010,22.19,1111122 
COMPS,ioos:station:USF.COMPS:FHP:1,2014-04-01T22:18:00Z,28.1530,-82.8010,22.29,1111122 
COMPS,ioos:station:USF.COMPS:FHP:1,2014-04-01T22:24:00Z,28.1530,-82.8010,22.11,1111122 
COMPS,ioos:station:USF.COMPS:FHP:1,2014-04-01T22:30:00Z,28.1530,-82.8010,21.58,1111122 
COMPS,ioos:station:USF.COMPS:FHP:1,2014-04-01T22:36:00Z,28.1530,-82.8010,21.63,1111122 
COMPS,ioos:station:USF.COMPS:FHP:1,2014-04-01T22:42:00Z,28.1530,-82.8010,21.77,1111122 
COMPS,ioos:station:USF.COMPS:FHP:1,2014-04-01T22:48:00Z,28.1530,-82.8010,21.58,1111122 
COMPS,ioos:station:USF.COMPS:FHP:1,2014-04-01T22:54:00Z,28.1530,-82.8010,21.37,1111122 
COMPS,ioos:station:USF.COMPS:FHP:1,2014-04-01T23:00:00Z,28.1530,-82.8010,21.61,1111122 
COMPS,ioos:station:USF.COMPS:FHP:1,2014-04-01T23:06:00Z,28.1530,-82.8010,21.19,1111122 
COMPS,ioos:station:USF.COMPS:FHP:1,2014-04-01T23:12:00Z,28.1530,-82.8010,21.22,1111122 
COMPS,ioos:station:USF.COMPS:FHP:1,2014-04-01T23:18:00Z,28.1530,-82.8010,21.19,1111122 
COMPS,ioos:station:USF.COMPS:FHP:1,2014-04-01T23:24:00Z,28.1530,-82.8010,21.24,1111122 
COMPS,ioos:station:USF.COMPS:FHP:1,2014-04-01T23:30:00Z,28.1530,-82.8010,20.95,1111122 
COMPS,ioos:station:USF.COMPS:FHP:1,2014-04-01T23:36:00Z,28.1530,-82.8010,20.85,1111122 
COMPS,ioos:station:USF.COMPS:FHP:1,2014-04-01T23:42:00Z,28.1530,-82.8010,20.76,1111122 
COMPS,ioos:station:USF.COMPS:FHP:1,2014-04-01T23:48:00Z,28.1530,-82.8010,20.73,1111122 
COMPS,ioos:station:USF.COMPS:FHP:1,2014-04-01T23:54:00Z,28.1530,-82.8010,20.71,1111122 
COMPS,ioos:station:USF.COMPS:FHP:1,2014-04-02T00:00:00Z,28.1530,-82.8010,20.59,1111122 
COMPS,ioos:station:USF.COMPS:FHP:1,2014-04-02T00:06:00Z,28.1530,-82.8010,20.52,1111122 
COMPS,ioos:station:USF.COMPS:FHP:1,2014-04-02T00:12:00Z,28.1530,-82.8010,20.47,1111122 
COMPS,ioos:station:USF.COMPS:FHP:1,2014-04-02T00:18:00Z,28.1530,-82.8010,20.34,1111122 
COMPS,ioos:station:USF.COMPS:FHP:1,2014-04-02T00:24:00Z,28.1530,-82.8010,20.33,1111122 
COMPS,ioos:station:USF.COMPS:FHP:1,2014-04-02T00:30:00Z,28.1530,-82.8010,20.22,1111122 
COMPS,ioos:station:USF.COMPS:FHP:1,2014-04-02T00:36:00Z,28.1530,-82.8010,20.17,1111122 
COMPS,ioos:station:USF.COMPS:FHP:1,2014-04-02T00:42:00Z,28.1530,-82.8010,20.11,1111122 
COMPS,ioos:station:USF.COMPS:FHP:1,2014-04-02T00:48:00Z,28.1530,-82.8010,20.11,1111122 
COMPS,ioos:station:USF.COMPS:FHP:1,2014-04-02T00:54:00Z,28.1530,-82.8010,19.97,1111122 
COMPS,ioos:station:USF.COMPS:FHP:1,2014-04-02T01:00:00Z,28.1530,-82.8010,19.91,1111122 
COMPS,ioos:station:USF.COMPS:FHP:1,2014-04-02T01:06:00Z,28.1530,-82.8010,20.0,1111122 
COMPS,ioos:station:USF.COMPS:FHP:1,2014-04-02T01:12:00Z,28.1530,-82.8010,20.07,1111122 
COMPS,ioos:station:USF.COMPS:FHP:1,2014-04-02T01:18:00Z,28.1530,-82.8010,20.05,1111122 
COMPS,ioos:station:USF.COMPS:FHP:1,2014-04-02T01:24:00Z,28.1530,-82.8010,20.05,1111122 
COMPS,ioos:station:USF.COMPS:FHP:1,2014-04-02T01:30:00Z,28.1530,-82.8010,20.05,1111122 
COMPS,ioos:station:USF.COMPS:FHP:1,2014-04-02T01:36:00Z,28.1530,-82.8010,19.95,1111122 
COMPS,ioos:station:USF.COMPS:FHP:1,2014-04-02T01:42:00Z,28.1530,-82.8010,19.95,1111122 
COMPS,ioos:station:USF.COMPS:FHP:1,2014-04-02T01:48:00Z,28.1530,-82.8010,19.93,1111122 
COMPS,ioos:station:USF.COMPS:FHP:1,2014-04-02T01:54:00Z,28.1530,-82.8010,19.93,1111122 
COMPS,ioos:station:USF.COMPS:FHP:1,2014-04-02T02:00:00Z,28.1530,-82.8010,19.92,1111122 
COMPS,ioos:station:USF.COMPS:FHP:1,2014-04-02T02:06:00Z,28.1530,-82.8010,19.93,1111122 
COMPS,ioos:station:USF.COMPS:FHP:1,2014-04-02T02:12:00Z,28.1530,-82.8010,19.89,1111122 
COMPS,ioos:station:USF.COMPS:FHP:1,2014-04-02T02:18:00Z,28.1530,-82.8010,19.87,1111122 
COMPS,ioos:station:USF.COMPS:FHP:1,2014-04-02T02:24:00Z,28.1530,-82.8010,19.79,1111122 
COMPS,ioos:station:USF.COMPS:FHP:1,2014-04-02T02:30:00Z,28.1530,-82.8010,19.74,1111122 
COMPS,ioos:station:USF.COMPS:FHP:1,2014-04-02T02:36:00Z,28.1530,-82.8010,19.48,1111122 
COMPS,ioos:station:USF.COMPS:FHP:1,2014-04-02T02:42:00Z,28.1530,-82.8010,19.26,1111122 
COMPS,ioos:station:USF.COMPS:FHP:1,2014-04-02T02:48:00Z,28.1530,-82.8010,19.15,1111122 
COMPS,ioos:station:USF.COMPS:FHP:1,2014-04-02T02:54:00Z,28.1530,-82.8010,18.73,1111122 
COMPS,ioos:station:USF.COMPS:FHP:1,2014-04-02T03:00:00Z,28.1530,-82.8010,18.55,1111122 
COMPS,ioos:station:USF.COMPS:FHP:1,2014-04-02T03:06:00Z,28.1530,-82.8010,18.59,1111122 